COSMOS 1275 DEB, 39956

Orbit data source: Space-Track

COSMOS 1275 DEB, 39956 is space debris in LEO originally from a launch on Thu, 04 Jun 1981 UTC launched from the Plesetsk Missile And Space Complex (PKMTR). Debris objects in space refer to the collection of defunct objects orbiting the Earth. Examples of debris include non-operational satellites, rocket bodies, and fragments generated from explosions, collisions, or faulty payload assembly.

Loading next visibility...
Identifier
39956, 1981-053NS
Orbit
LEO
Country
Flag of CISCIS
Related business
Manufacturer
Unknown
Mission
Spacecraft
Bus & Motor
Unknown
Mass
Unknown
Launch date (UTC)
1981-06-04 (44 years ago)
Launch vehicle
Unknown
Launch site
Plesetsk Missile And Space Complex (PKMTR)
Object type
Payload
Rocket body
Debris
Shape & HBR
Unknown shape, 0.1 m
Radar Cross Section
Small (<0.1 m²)

Expand to show TLE details & history
Last TLE update: 21 hours ago

TLE from 21 hours ago
0 COSMOS 1275 DEB
1 39956U 81053NS  25287.88028544  .00001666  00000-0  16133-2 0  9997
2 39956  83.0149  93.2111 0122907 259.6931  99.0351 13.75930907568563
Epoch: 2025-10-14T21:07Z
TLE epoch observation values (Epoch: 2025-10-14T21:07:36.662Z)
Latitude
0.00006°
Longitude
112.64598°
Altitude
996.54 km
Speed
7.346 km/s
True Right ascension
06h 12m 50s
True Declination
0° 00' 00"
Sunlit
Object was in daylight at epoch
Visualization orbit readout
Latitude
Unknown
Longitude
Unknown
Altitude
Unknown
Speed
Unknown
Apparent Right ascension
Unknown
Apparent Declination
Unknown
Sunlit
N/A
Visualization observer readout
Local Sidereal Time
13:04:13
Azimuth
Unknown
Elevation
Unknown
Doppler factor
Unknown
Orbital elements
Apogee altitude
1,065.88 km
Perigee altitude
885.118 km
Semi-major axis
7,353.636 km
Eccentricity
0.01229
Inclination
83.0149°
RAAN
93.2111°
Arg. of periapsis
259.6931°
True anomaly
100.42255°
Mean anomaly
99.0351°
Eccentric anomaly
99.72918°
Mean motion
3.44183 °/min
Orbital period
104.6 mins
BSTAR
0.0016133
Loading maneuver chart data...
Computing Atmospheric mass density...

Documentation

Showing up to 5 results
|